Probability
0 0 0 0 1 1 1 0 0 0 0 0 0 0 0 0 0 0 0 0 0 1 3 6 8 8 6 4 3 2 2 1 0 0 0 0 0 0 0 0 0 0 0 0 0 0 0 0 0
0 0 0 0 0 0 0 0 0 0 0 0 0 0 0 0 0 0 0 0 0 1 3 5 8 8 6 4 3 3 3 2 1 0 0 0 0 0 0 0 0 0 0 1 1 0 0 0 0
0 0 0 0 0 0 0 0 0 0 0 0 0 0 0 0 0 0 0 0 0 1 2 5 7 8 6 4 3 3 3 3 1 0 0 0 0 0 0 0 0 0 1 2 2 1 1 0 0
0 0 0 0 0 0 0 0 0 0 0 0 0 0 0 0 0 0 0 0 0 0 1 4 6 8 6 4 3 3 3 3 2 1 0 0 0 0 0 0 0 0 1 2 2 2 1 0 0
1 1 0 0 0 0 0 0 0 0 0 0 0 0 0 0 0 0 0 1 1 1 1 3 5 6 5 4 3 3 3 3 3 3 1 0 0 0 0 0 0 0 0 1 1 1 0 0 0
0 0 0 0 0 0 0 0 0 0 0 0 0 0 0 0 0 1 1 2 2 2 2 3 4 4 3 3 3 3 3 3 4 4 2 0 0 0 0 0 0 0 0 0 0 0 0 0 0
0 0 0 0 0 0 0 0 0 0 0 0 0 0 0 0 0 1 2 2 2 2 2 3 4 3 3 3 3 3 3 3 3 2 1 0 0 0 0 0 0 0 0 0 0 0 0 0 0
0 0 0 0 0 0 0 0 0 0 0 0 0 0 0 0 0 1 1 1 1 1 1 3 3 3 3 3 3 3 3 2 1 1 0 0 0 0 0 0 0 0 0 0 0 0 0 0 0
0 0 0 0 0 0 0 0 0 0 0 0 0 0 0 0 0 0 0 0 0 0 1 2 3 3 3 3 3 3 2 1 0 0 0 0 0 0 0 0 0 0 0 0 0 0 0 0 0
0 0 0 0 0 0 0 0 0 0 0 0 0 0 0 0 0 0 0 0 0 0 1 2 3 3 3 3 3 3 3 2 0 0 0 0 0 0 0 0 0 0 0 0 0 0 0 0 0
0 0 0 0 0 0 0 0 0 0 0 0 0 0 0 0 0 0 0 0 0 0 0 1 3 3 3 3 3 4 4 4 2 0 0 0 0 0 0 0 0 0 0 0 0 0 0 0 0
0 0 0 0 0 0 0 0 0 0 0 0 0 0 0 0 0 0 0 0 0 0 1 1 3 3 3 3 3 3 4 5 3 2 1 1 1 0 0 0 0 0 0 0 0 0 0 0 0
0 0 0 0 0 0 0 0 0 0 0 0 0 0 0 0 0 0 0 0 0 0 1 2 3 3 3 3 3 3 3 4 4 3 2 2 2 1 1 0 0 0 0 0 0 0 0 0 0
0 0 0 0 0 0 0 0 0 0 0 0 0 0 0 0 0 0 0 0 0 0 1 2 3 3 3 3 3 3 3 3 4 4 2 2 2 2 2 1 0 0 0 0 0 0 0 0 0
0 0 0 0 0 0 0 0 0 0 0 0 0 0 0 0 0 0 0 0 0 0 0 1 2 2 2 2 2 3 3 3 3 3 3 1 1 1 2 1 0 0 0 0 0 0 0 0 0
0 0 0 0 0 0 0 0 0 0 0 0 0 0 0 0 0 0 0 0 0 0 0 0 0 0 1 2 2 3 3 3 3 3 3 2 1 1 1 1 0 0 0 0 0 0 0 0 0
0 0 0 0 0 0 0 0 0 0 0 0 0 0 0 0 0 0 0 0 0 0 0 0 0 0 0 1 2 3 3 3 3 3 3 2 1 0 1 1 0 0 0 0 0 0 0 0 0
0 0 0 0 0 0 0 0 0 0 0 0 0 0 0 0 0 0 0 0 0 0 0 0 0 0 0 1 2 3 3 3 3 3 3 1 0 0 0 1 0 0 0 0 0 0 0 0 0
0 0 0 0 0 0 0 0 0 0 0 0 0 0 0 0 0 0 0 0 0 0 0 0 0 0 0 0 1 2 3 3 3 3 2 1 0 0 1 1 0 0 0 0 0 0 0 0 0
0 0 0 0 0 0 0 0 0 0 0 0 0 0 0 0 0 0 0 0 0 0 0 0 0 0 0 0 0 1 2 3 3 3 2 1 0 0 1 2 1 0 0 0 0 0 0 0 0
0 0 0 0 0 0 0 0 0 0 0 0 0 0 0 0 0 0 0 0 0 0 0 0 0 0 0 0 0 1 2 2 3 2 1 0 0 0 1 1 1 0 0 0 0 0 0 0 0
0 0 0 0 0 0 0 0 0 0 0 0 0 0 0 0 0 0 0 0 0 0 0 0 0 0 0 0 1 1 1 2 1 1 0 0 0 0 0 0 0 0 0 0 0 0 0 0 0
0 0 0 0 0 0 0 0 0 0 0 0 0 0 0 0 0 0 1 1 0 0 0 0 0 0 0 1 1 1 2 2 1 0 0 0 0 0 0 0 0 0 0 0 0 0 0 0 0
0 0 0 0 0 0 0 0 0 0 0 0 0 0 0 0 0 0 1 1 1 1 0 0 0 0 0 1 2 3 2 1 0 0 0 0 0 0 0 0 0 0 0 0 0 0 0 0 0
0 0 0 0 0 0 0 0 0 0 0 0 0 0 0 0 0 0 1 1 1 1 0 0 0 0 0 1 2 4 4 2 1 0 0 0 0 0 0 0 0 0 0 0 0 0 0 0 0
0 0 0 0 0 0 0 0 0 0 0 0 0 0 0 0 0 0 0 0 1 1 0 0 0 0 0 0 1 3 4 4 2 1 0 1 1 0 0 0 0 0 0 0 0 0 0 0 0
0 0 0 0 0 0 0 0 0 0 0 0 0 0 0 0 0 0 0 0 0 0 0 0 0 0 0 0 0 1 2 3 3 1 0 1 1 0 0 0 0 0 0 0 0 0 0 0 0
0 0 0 0 0 0 0 0 0 0 0 0 0 0 0 0 0 0 0 0 0 0 0 0 0 0 0 0 0 0 1 3 2 1 0 1 1 0 0 0 0 0 0 0 0 0 0 0 0
0 0 0 0 0 0 0 0 0 0 0 0 0 0 0 0 0 0 0 0 0 0 0 0 0 0 0 0 0 0 1 2 2 1 0 0 0 0 0 0 0 0 0 0 0 0 0 0 0
0 0 0 0 0 0 0 0 0 0 0 0 0 0 0 0 0 0 0 0 0 0 0 0 0 0 0 0 0 0 0 1 1 0 0 0 0 0 0 0 0 0 0 0 0 0 0 0 0
Wind_Speed
5 2 2 2 4 4 6 4 3 3 3 2 2 1 2 2 1 4 4 3 3 5 5 6 7 8 8 8 8 7 6 6 6 6 6 6 6 6 6 6 6 6 7 8 8 9 9 9 10
3 1 2 3 5 6 5 5 5 2 3 4 3 2 3 3 4 4 3 2 3 5 5 5 7 8 8 8 8 7 6 6 6 5 6 5 6 6 6 6 6 6 7 7 8 8 8 9 9
1 1 2 3 5 6 4 3 3 3 3 2 2 2 2 3 3 3 3 2 4 5 5 6 7 8 8 8 8 7 6 6 6 5 5 5 6 6 6 6 6 6 7 7 8 8 8 8 8
2 2 2 5 7 5 3 1 3 5 3 1 2 3 3 4 3 2 3 3 5 5 5 6 7 8 7 7 7 7 7 7 7 7 7 6 6 6 6 6 6 6 7 7 7 7 7 7 7
1 3 5 6 7 3 2 1 3 4 4 3 3 3 3 4 4 4 4 4 5 5 4 5 6 7 7 7 7 7 7 7 8 8 8 8 7 6 6 6 6 6 6 6 7 7 7 6 7
2 3 6 8 7 3 2 2 3 3 3 3 2 3 3 4 4 4 4 4 4 5 4 4 6 6 6 7 7 7 7 7 7 8 8 8 8 7 7 6 6 6 6 6 6 6 6 6 6
3 3 6 6 5 4 2 2 3 3 3 2 1 3 4 3 3 3 4 4 5 5 4 4 4 5 6 7 7 7 7 7 7 8 8 8 8 7 7 7 6 6 6 6 6 6 6 6 6
2 3 5 5 6 3 1 2 1 2 1 1 1 2 2 2 2 3 4 4 4 4 4 4 3 3 3 4 7 7 6 7 7 7 7 7 7 7 7 6 6 6 6 6 6 6 5 5 6
2 4 6 5 4 2 2 2 0 0 2 1 1 2 2 4 4 3 3 3 3 3 3 3 2 2 2 3 4 5 5 5 5 5 6 4 2 3 3 5 6 6 6 6 6 6 5 4 4
3 5 5 2 1 1 2 1 1 2 2 2 1 1 3 4 4 3 3 2 2 2 2 2 2 2 1 2 2 2 2 2 2 2 2 2 1 2 2 4 5 5 5 5 6 5 4 2 2
2 4 2 1 0 0 2 1 1 3 2 3 3 2 3 4 3 3 2 2 2 1 1 1 1 1 1 1 1 1 1 1 2 2 2 1 1 1 1 1 1 2 2 2 2 2 2 2 2
2 0 1 0 1 0 1 1 1 2 2 2 1 3 4 4 3 3 2 2 1 1 1 0 0 1 1 1 1 1 1 1 1 1 1 1 1 1 1 1 1 1 0 0 1 1 1 1 1
2 1 1 1 2 1 1 1 1 2 2 1 2 4 4 3 2 2 2 1 1 1 1 1 1 1 1 1 1 1 1 1 1 1 1 1 1 1 1 0 0 1 1 0 0 0 0 1 1
2 1 0 1 1 0 1 0 1 4 1 2 3 3 3 3 2 1 1 1 1 1 1 1 1 1 1 1 1 1 1 1 1 1 1 0 0 0 1 0 0 0 1 1 1 1 0 0 0
1 1 1 1 1 1 2 3 4 2 2 2 2 2 2 2 2 2 2 1 1 1 1 1 1 1 1 1 1 1 1 1 1 1 1 1 1 1 1 1 0 0 0 0 0 0 0 0 0
2 3 3 1 1 1 3 7 2 2 3 3 3 2 2 1 1 1 1 1 1 1 1 1 1 1 1 1 1 1 0 1 0 0 1 1 1 1 1 1 1 1 1 0 0 0 0 1 1
2 4 4 2 1 1 4 7 2 2 3 4 4 3 2 2 1 1 1 1 1 1 1 1 1 1 1 1 1 1 0 0 0 0 0 0 1 1 1 1 1 1 1 1 1 1 1 1 1
3 4 4 4 0 2 6 8 5 4 5 6 5 5 4 3 3 2 1 1 1 2 2 2 2 1 1 1 1 1 1 0 0 0 0 0 1 1 2 1 1 1 1 1 1 1 1 1 1
2 3 5 3 1 3 7 10 9 6 6 7 7 6 6 4 3 1 1 1 2 2 2 1 1 1 1 1 1 1 1 0 0 0 0 1 1 1 1 1 1 1 1 1 1 1 1 1 1
3 4 5 3 0 3 6 11 9 7 8 8 8 7 6 4 3 2 2 2 2 2 2 2 1 1 1 1 1 1 1 0 0 0 1 1 1 1 1 2 1 1 2 2 1 1 1 1 1
4 6 6 4 2 3 6 9 7 5 6 6 6 6 6 6 5 4 4 3 3 2 2 1 1 1 1 0 1 1 1 1 1 1 1 1 1 1 2 2 2 2 2 2 2 2 2 2 2
5 4 4 4 4 3 3 7 5 3 4 6 7 7 7 6 6 5 5 4 4 3 2 2 1 2 1 2 2 2 2 2 2 1 1 1 1 1 2 2 2 2 2 2 2 2 2 3 2
2 1 2 4 4 5 5 7 6 2 5 7 7 7 6 6 6 5 5 4 3 3 2 2 2 1 1 2 3 3 2 2 1 1 1 1 1 1 2 2 2 2 3 3 3 3 3 3 3
3 2 1 1 3 6 6 8 7 4 6 5 5 5 5 4 5 5 4 3 3 2 2 2 2 2 2 2 2 3 3 2 2 2 2 1 1 1 2 2 2 2 2 3 3 3 3 3 3
3 3 2 3 4 6 3 7 9 3 4 4 4 4 4 4 5 5 5 5 4 3 3 2 2 2 2 2 3 3 3 3 4 3 3 2 2 2 2 2 3 3 3 3 3 3 4 4 4
6 5 4 5 5 4 4 9 6 2 2 3 2 2 3 4 5 5 5 5 4 4 3 3 3 3 2 2 3 3 3 2 2 3 3 3 3 2 3 3 3 3 3 3 3 3 3 3 4
5 5 2 1 2 5 6 6 6 4 4 3 3 3 3 3 4 5 5 4 4 4 4 3 3 3 3 3 3 3 3 3 3 3 3 3 3 2 3 3 3 2 3 3 3 3 3 3 3
3 4 4 4 4 7 7 7 6 5 5 4 4 4 4 3 4 4 4 4 4 3 3 3 3 3 3 2 2 2 3 3 3 2 3 3 3 2 3 3 3 3 3 3 3 3 3 3 3
6 5 5 4 4 5 7 6 2 5 4 4 5 4 4 4 4 4 4 3 3 3 3 3 3 3 3 2 3 3 2 2 2 2 3 3 3 3 3 3 3 3 3 3 3 3 3 4 4
6 7 8 6 6 5 6 7 2 2 2 3 4 3 3 3 3 3 3 3 3 3 3 3 3 3 3 3 3 3 2 2 2 2 2 3 3 3 3 3 3 3 3 3 4 4 4 4 5
Wind_Direction
323 319 267 229 213 217 226 211 209 163 154 86 85 130 121 71 28 77 70 89 115 139 136 127 108 105 104 105 104 104 105 104 103 102 101 97 96 91 88 81 75 72 71 71 71 70 68 68 68
326 290 220 219 229 221 219 208 200 174 105 113 101 113 110 79 46 72 81 71 121 130 128 122 105 102 99 97 99 99 99 105 104 99 98 97 93 90 88 81 74 72 70 71 72 70 69 68 68
290 274 224 209 225 232 216 179 177 138 124 145 118 67 63 71 73 78 53 99 123 122 120 109 99 100 99 95 92 96 96 97 95 93 95 94 93 89 87 81 75 75 74 74 73 72 69 67 67
234 188 206 225 221 231 246 155 150 154 147 127 144 117 97 48 32 54 79 113 117 114 117 110 97 100 100 96 93 91 93 90 86 84 85 83 82 83 82 77 72 73 74 75 73 73 72 66 66
235 216 210 221 230 229 237 253 191 181 160 144 159 136 112 73 53 84 98 106 113 111 113 112 92 94 97 93 90 88 87 88 84 79 77 73 68 70 78 75 71 72 73 73 72 71 73 69 63
191 216 221 223 221 222 222 228 191 194 170 138 150 136 110 83 70 83 94 98 98 106 105 103 83 80 84 88 88 87 86 84 83 78 72 69 63 59 67 68 68 73 72 72 71 71 70 66 61
215 215 233 234 226 221 210 190 204 199 191 171 190 149 129 107 63 84 99 98 95 93 99 100 104 93 79 77 79 84 84 82 81 78 72 66 60 55 56 59 61 65 66 70 71 69 66 65 60
262 218 222 228 230 230 163 170 225 222 196 69 246 192 152 122 94 101 105 99 92 84 82 87 90 98 104 99 83 80 82 80 78 76 72 69 68 62 57 57 57 60 61 63 67 66 63 61 57
229 223 229 228 233 217 147 181 129 46 134 105 22 346 39 115 128 123 117 103 93 83 74 76 83 89 98 103 97 95 90 84 85 83 76 78 84 75 70 56 53 58 57 60 62 60 55 53 63
218 227 233 243 252 201 163 201 195 177 180 210 227 42 90 127 145 148 143 134 119 95 76 72 75 85 110 114 122 124 118 111 104 102 98 97 83 66 67 66 51 53 56 61 58 53 50 28 55
203 235 225 228 48 193 184 191 209 212 227 239 235 188 146 147 152 164 172 172 174 159 107 73 71 88 116 129 133 129 133 128 120 111 109 106 102 88 69 82 70 60 60 73 70 60 34 20 11
161 242 256 294 67 79 238 192 190 245 272 332 263 157 153 161 170 186 192 192 188 185 176 109 104 100 113 133 138 149 151 142 140 132 125 123 107 95 87 65 32 6 350 69 65 50 44 21 9
195 197 54 63 91 71 80 186 238 267 292 331 122 141 160 171 180 190 191 182 181 188 194 202 170 155 141 126 137 142 160 155 154 134 126 145 147 131 118 83 53 0 343 0 5 359 37 24 11
143 162 153 4 177 162 148 248 260 266 205 153 158 165 180 183 189 185 186 183 182 189 214 206 167 162 158 144 136 145 159 156 163 136 102 164 196 171 164 166 158 349 342 344 331 324 310 328 328
160 183 243 265 233 225 235 259 240 239 156 166 185 185 191 192 191 204 205 209 196 201 176 155 155 142 156 152 152 146 153 170 164 170 172 182 203 191 185 209 224 250 278 343 278 340 306 267 250
193 217 237 176 234 245 229 251 228 176 188 209 215 215 217 220 228 234 221 212 198 151 135 130 102 127 143 153 169 161 153 175 175 191 197 200 205 206 191 208 240 239 209 212 273 232 232 258 265
203 239 247 242 197 217 224 258 233 200 224 232 229 232 236 250 267 262 239 202 155 147 137 123 104 123 143 150 176 149 156 161 192 195 186 226 229 226 214 222 251 250 210 196 240 255 248 253 264
226 241 254 246 211 212 229 251 255 224 234 244 241 238 234 241 251 249 230 176 132 122 119 117 104 87 131 150 151 156 143 158 215 210 218 230 234 234 227 231 238 237 213 203 213 250 253 262 278
233 237 258 270 310 246 248 260 261 244 238 244 242 237 237 241 243 227 200 162 146 123 116 117 117 102 122 162 178 186 197 206 240 271 259 253 253 249 239 239 238 238 229 226 212 223 233 255 279
214 246 261 272 323 259 270 271 264 244 237 239 240 235 232 233 223 212 198 176 176 162 153 152 150 158 183 204 200 221 222 219 294 321 318 299 272 264 251 241 241 236 232 227 213 219 241 233 224
233 245 255 270 294 249 282 270 246 226 227 236 239 239 234 229 224 212 203 196 189 182 173 165 167 174 188 185 159 140 167 210 229 274 307 326 316 289 260 248 241 236 231 239 238 232 235 239 216
247 242 239 249 265 266 270 280 255 222 234 236 235 228 229 224 220 215 207 202 202 195 180 175 183 189 183 187 190 183 200 222 253 265 272 297 304 292 281 267 250 237 231 233 237 244 248 249 235
236 101 216 237 247 271 238 254 261 201 248 245 232 226 223 218 215 214 210 207 202 193 191 192 192 199 202 210 209 208 210 216 231 239 245 272 280 279 277 267 256 246 238 236 232 236 241 246 253
149 131 126 195 224 252 235 236 260 216 234 243 225 219 218 211 212 213 206 200 194 188 195 206 207 209 217 228 227 222 217 209 214 228 241 253 265 270 273 269 259 251 248 245 240 237 236 237 241
183 192 229 224 221 243 173 232 254 229 228 240 233 225 218 210 210 210 204 199 198 198 202 208 221 227 228 233 240 236 228 222 228 229 235 245 251 263 271 266 258 251 247 247 246 241 239 237 237
199 208 221 247 255 265 202 240 252 215 262 261 247 230 224 216 212 215 213 206 201 203 206 212 225 235 236 242 253 246 237 230 238 243 244 245 248 254 265 264 264 265 260 254 249 244 245 242 240
183 207 238 246 294 270 247 256 269 223 241 234 232 234 232 229 221 219 216 213 208 206 210 217 228 238 241 247 255 258 245 238 241 246 251 252 258 261 260 263 265 265 268 266 256 249 246 245 242
237 170 173 202 237 258 263 252 248 220 227 224 232 241 249 241 230 223 217 217 215 215 214 217 227 236 245 252 257 264 258 249 251 245 252 265 267 265 257 257 260 259 258 260 258 252 250 249 248
176 186 198 200 235 248 269 260 224 226 211 216 230 243 251 244 233 224 221 219 217 214 213 217 228 238 245 253 260 265 266 253 251 258 257 261 267 264 260 255 255 254 254 253 250 254 253 249 251
222 208 192 210 222 231 259 271 98 238 260 249 251 255 254 247 238 229 224 216 215 217 218 221 230 237 244 250 255 258 265 258 251 261 272 273 267 265 264 257 253 254 253 252 250 254 253 252 252